Location: Buch
(50.1863°N, 11.0141°E)
Time: 12:49:00
(UTC+00:00)

Envisat - Pass Details

Date: 18 January 2020
Orbit: 764 x 766 km, 98.1° (Epoch: 17 February)

Event Time Altitude Azimuth Distance (km) Brightness Sun altitude
Rises 05:29:37 0° 19° (NNE) 3,246 6.3 -15.2°
Reaches altitude 10° 05:32:05 10° 27° (NNE) 2,314 5.6 -14.8°
Maximum altitude 05:36:53 41° 97° (E) 1,111 4.5 -14.0°
Drops below altitude 10° 05:41:39 10° 167° (SSE) 2,297 5.9 -13.3°
Sets 05:44:04 0° 175° (S) 3,218 6.5 -12.9°
